When you browse on this site, cookies collect data to enhance your experience and personalize the content and advertising you see.
Visit our Privacy Policy to learn more. By continuing to use the site, you agree to this use of cookies and data.
  • Em Portugal
  • Lista de países
  • Para 7 dias
  • Temperatura da água
  • Mapas de satélite
  • Mapa do tempo
  • Widgets de tempo
  • user-avatar
    Iniciar Sessão

    Previsão horária em Stropieszyn

    Hoje, 25 Março, Segunda-feira

    Tempo Temperatura Precipitação Vento Pressão Humidade
    00:00 +8°C° 0.2 mm 1 m/s 742 mmHg 59%
    01:00 +8°C° 0.2 mm 1 m/s 741 mmHg 64%
    02:00 +7°C° 0.2 mm 1 m/s 741 mmHg 67%
    03:00 +7°C° 0.2 mm 1 m/s 740 mmHg 71%
    04:00 +6°C° 0.2 mm 2 m/s 740 mmHg 74%
    05:00 +6°C° 0.1 mm 2 m/s 740 mmHg 74%
    06:00 +6°C° 0.1 mm 2 m/s 739 mmHg 74%
    07:00 +5°C° 0.1 mm 3 m/s 739 mmHg 74%
    08:00 +7°C° 0.1 mm 3 m/s 739 mmHg 71%
    09:00 +7°C° 0.1 mm 3 m/s 738 mmHg 67%
    10:00 +7°C° 0.1 mm 4 m/s 738 mmHg 64%
    11:00 +8°C° 0.4 mm 4 m/s 738 mmHg 59%
    12:00 +10°C° 0.4 mm 4 m/s 737 mmHg 54%
    13:00 +9°C° 0.4 mm 5 m/s 737 mmHg 48%
    14:00 +9°C° 0.3 mm 5 m/s 737 mmHg 50%
    15:00 +8°C° 0.3 mm 5 m/s 737 mmHg 53%
    16:00 +7°C° 0.3 mm 5 m/s 737 mmHg 55%
    17:00 +6°C° 0.2 mm 4 m/s 737 mmHg 60%
    18:00 +6°C° 0.2 mm 4 m/s 738 mmHg 65%
    19:00 +5°C° 0.2 mm 4 m/s 738 mmHg 70%
    20:00 +4°C° 0.3 mm 4 m/s 739 mmHg 72%
    21:00 +3°C° 0.3 mm 5 m/s 740 mmHg 74%
    22:00 +3°C° 0.3 mm 5 m/s 740 mmHg 76%
    23:00 +3°C° 0 mm 4 m/s 741 mmHg 78%

    Amanhã, 26 Março, Terça-feira

    Tempo Temperatura Precipitação Vento Pressão Humidade
    00:00 +3°C° 0 mm 4 m/s 742 mmHg 81%
    01:00 +1°C° 0 mm 4 m/s 742 mmHg 84%
    02:00 +1°C° 0 mm 4 m/s 743 mmHg 85%
    03:00 0°C° 0 mm 4 m/s 743 mmHg 87%
    04:00 0°C° 0 mm 4 m/s 743 mmHg 89%
    05:00 0°C° 0 mm 4 m/s 744 mmHg 87%
    06:00 0°C° 0 mm 4 m/s 745 mmHg 85%
    07:00 0°C° 0 mm 5 m/s 745 mmHg 83%
    08:00 +1°C° 0 mm 5 m/s 745 mmHg 78%
    09:00 +2°C° 0 mm 5 m/s 746 mmHg 73%
    10:00 +2°C° 0 mm 6 m/s 746 mmHg 68%
    11:00 +3°C° 0 mm 6 m/s 746 mmHg 64%
    12:00 +4°C° 0 mm 6 m/s 745 mmHg 59%
    13:00 +5°C° 0 mm 7 m/s 745 mmHg 55%
    14:00 +6°C° 0 mm 7 m/s 745 mmHg 53%
    15:00 +6°C° 0 mm 7 m/s 744 mmHg 52%
    16:00 +6°C° 0 mm 7 m/s 744 mmHg 50%
    17:00 +5°C° 0.1 mm 7 m/s 744 mmHg 54%
    18:00 +4°C° 0.1 mm 6 m/s 744 mmHg 59%
    19:00 +3°C° 0.1 mm 6 m/s 745 mmHg 63%
    20:00 +3°C° 0 mm 6 m/s 745 mmHg 65%
    21:00 +2°C° 0 mm 5 m/s 746 mmHg 66%
    22:00 +2°C° 0 mm 5 m/s 746 mmHg 68%
    23:00 +3°C° 0.1 mm 4 m/s 747 mmHg 70%

    Depois de amanhã, 27 Março, Quarta-feira

    Tempo Temperatura Precipitação Vento Pressão Humidade
    00:00 +3°C° 0.1 mm 4 m/s 747 mmHg 72%
    01:00 +1°C° 0.1 mm 4 m/s 748 mmHg 74%
    02:00 +1°C° 0 mm 3 m/s 748 mmHg 77%
    03:00 0°C° 0 mm 3 m/s 748 mmHg 81%
    04:00 -1°C° 0 mm 2 m/s 748 mmHg 84%
    05:00 -1°C° 0 mm 2 m/s 749 mmHg 79%
    06:00 +1°C° 0 mm 2 m/s 749 mmHg 74%
    07:00 +2°C° 0 mm 1 m/s 750 mmHg 70%
    08:00 +3°C° 0 mm 2 m/s 750 mmHg 64%
    09:00 +4°C° 0 mm 2 m/s 750 mmHg 58%
    10:00 +5°C° 0 mm 2 m/s 751 mmHg 52%
    11:00 +5°C° 0 mm 3 m/s 751 mmHg 50%
    12:00 +7°C° 0 mm 3 m/s 751 mmHg 49%
    13:00 +7°C° 0 mm 3 m/s 751 mmHg 48%
    14:00 +8°C° 0 mm 3 m/s 750 mmHg 48%
    15:00 +8°C° 0 mm 3 m/s 750 mmHg 48%
    16:00 +8°C° 0 mm 3 m/s 750 mmHg 48%
    17:00 +7°C° 0 mm 2 m/s 750 mmHg 51%
    18:00 +7°C° 0 mm 2 m/s 751 mmHg 54%
    19:00 +7°C° 0 mm 1 m/s 751 mmHg 57%
    20:00 +7°C° 0 mm 1 m/s 751 mmHg 59%
    21:00 +6°C° 0 mm 1 m/s 752 mmHg 62%
    22:00 +5°C° 0 mm 2 m/s 752 mmHg 64%
    23:00 +5°C° 0 mm 2 m/s 752 mmHg 67%

    28 Março, Quinta-feira

    Tempo Temperatura Precipitação Vento Pressão Humidade
    00:00 +6°C° 0 mm 1 m/s 752 mmHg 70%
    01:00 +6°C° 0 mm 1 m/s 753 mmHg 74%
    02:00 +6°C° 0 mm 1 m/s 753 mmHg 76%
    03:00 +6°C° 0 mm 1 m/s 753 mmHg 79%
    04:00 +6°C° 0 mm 1 m/s 753 mmHg 82%
    05:00 +6°C° 0 mm 1 m/s 753 mmHg 82%
    06:00 +6°C° 0 mm 1 m/s 753 mmHg 82%
    07:00 +6°C° 0 mm 1 m/s 753 mmHg 82%
    08:00 +8°C° 0 mm 1 m/s 754 mmHg 75%
    09:00 +9°C° 0 mm 1 m/s 754 mmHg 68%
    10:00 +9°C° 0 mm 0 m/s 754 mmHg 61%
    11:00 +10°C° 0 mm 0 m/s 754 mmHg 58%
    12:00 +10°C° 0 mm 0 m/s 754 mmHg 54%
    13:00 +11°C° 0 mm 0 m/s 754 mmHg 51%
    14:00 +11°C° 0 mm 0 m/s 754 mmHg 50%
    15:00 +12°C° 0 mm 1 m/s 753 mmHg 50%
    16:00 +12°C° 0 mm 1 m/s 753 mmHg 49%
    17:00 +11°C° 0 mm 1 m/s 753 mmHg 54%
    18:00 +10°C° 0 mm 1 m/s 754 mmHg 59%
    19:00 +9°C° 0 mm 1 m/s 754 mmHg 64%
    20:00 +8°C° 0 mm 1 m/s 754 mmHg 67%
    21:00 +8°C° 0 mm 1 m/s 754 mmHg 70%
    22:00 +7°C° 0 mm 1 m/s 755 mmHg 73%
    23:00 +7°C° 0 mm 1 m/s 755 mmHg 75%

    29 Março, Sexta-feira

    Tempo Temperatura Precipitação Vento Pressão Humidade
    00:00 +6°C° 0 mm 1 m/s 755 mmHg 77%
    01:00 +6°C° 0 mm 1 m/s 755 mmHg 80%
    02:00 +4°C° 0 mm 0 m/s 755 mmHg 81%
    03:00 +4°C° 0 mm 0 m/s 755 mmHg 83%
    04:00 +4°C° 0 mm 0 m/s 755 mmHg 84%
    05:00 +4°C° 0 mm 0 m/s 755 mmHg 81%
    06:00 +5°C° 0 mm 0 m/s 755 mmHg 78%
    07:00 +6°C° 0 mm 0 m/s 755 mmHg 74%
    08:00 +8°C° 0 mm 1 m/s 755 mmHg 68%
    09:00 +10°C° 0 mm 1 m/s 755 mmHg 61%
    10:00 +12°C° 0 mm 1 m/s 755 mmHg 54%
    11:00 +13°C° 0 mm 1 m/s 754 mmHg 50%
    12:00 +13°C° 0 mm 1 m/s 754 mmHg 47%
    13:00 +14°C° 0 mm 1 m/s 754 mmHg 43%
    14:00 +14°C° 0 mm 1 m/s 753 mmHg 42%
    15:00 +14°C° 0 mm 1 m/s 753 mmHg 42%
    16:00 +14°C° 0 mm 1 m/s 752 mmHg 41%
    17:00 +13°C° 0 mm 1 m/s 752 mmHg 45%
    18:00 +11°C° 0 mm 1 m/s 752 mmHg 50%
    19:00 +10°C° 0 mm 1 m/s 752 mmHg 54%
    20:00 +10°C° 0 mm 1 m/s 752 mmHg 56%
    21:00 +9°C° 0 mm 1 m/s 752 mmHg 58%
    22:00 +8°C° 0 mm 1 m/s 752 mmHg 61%
    23:00 +8°C° 0 mm 1 m/s 752 mmHg 63%

    30 Março, Sábado

    Tempo Temperatura Precipitação Vento Pressão Humidade
    00:00 +7°C° 0 mm 1 m/s 752 mmHg 65%
    01:00 +7°C° 0 mm 1 m/s 752 mmHg 67%
    02:00 +7°C° 0 mm 1 m/s 751 mmHg 69%
    03:00 +6°C° 0 mm 1 m/s 751 mmHg 70%
    04:00 +6°C° 0 mm 1 m/s 751 mmHg 72%
    05:00 +7°C° 0 mm 1 m/s 751 mmHg 70%
    06:00 +7°C° 0 mm 1 m/s 751 mmHg 69%
    07:00 +8°C° 0 mm 1 m/s 751 mmHg 67%
    08:00 +10°C° 0 mm 1 m/s 751 mmHg 60%
    09:00 +10°C° 0 mm 2 m/s 750 mmHg 54%
    10:00 +13°C° 0 mm 2 m/s 750 mmHg 47%
    11:00 +14°C° 0 mm 2 m/s 750 mmHg 44%
    12:00 +15°C° 0 mm 2 m/s 749 mmHg 40%
    13:00 +15°C° 0 mm 2 m/s 748 mmHg 37%
    14:00 +16°C° 0 mm 2 m/s 748 mmHg 37%
    15:00 +16°C° 0 mm 2 m/s 747 mmHg 36%
    16:00 +16°C° 0 mm 2 m/s 746 mmHg 36%
    17:00 +14°C° 0 mm 2 m/s 746 mmHg 40%
    18:00 +13°C° 0 mm 1 m/s 746 mmHg 44%
    19:00 +11°C° 0 mm 1 m/s 746 mmHg 49%
    20:00 +10°C° 0 mm 1 m/s 746 mmHg 53%
    21:00 +10°C° 0 mm 1 m/s 746 mmHg 56%
    22:00 +8°C° 0 mm 2 m/s 746 mmHg 60%
    23:00 +9°C° 0 mm 1 m/s 746 mmHg 62%
    Mostrar mais